Home   Weather   Lahore   Past weeks

Flag for Pakistan Past Weather in Lahore, Pakistan — Yesterday and Last 2 Weeks

68 °F


Feels Like: 68 °F
Forecast: 67 / 87 °F
Wind: No wind

Location: Lahore Airport

Current Time: Oct 25, 2016 at 4:40:17 AM

Latest Report: Oct 25, 2016 at 3:55 AM

Visibility: 2 mi

Pressure: 29.77 "Hg

Humidity: 73%

Dew Point: 59 °F

Location of LahoreLocation

Past Weather in Lahore — Graph


Lahore Temperature Yesterday

Maximum temperature yesterday: 91 °F (at 3:00 PM)
Minimum temperature yesterday: 64 °F (at 4:55 AM)
Average temperature yesterday: 77 °F

High & Low Weather Summary for the Past Weeks

High97 °F (Oct 12, 2:55 PM)88% (Oct 11, 6:55 AM)29.95 "Hg (Oct 11, 6:55 AM)
Low64 °F (Oct 19, 5:55 AM)20% (Oct 13, 2:55 PM)29.68 "Hg (Oct 12, 2:55 PM)
Average80 °F56%29.81 "Hg
* Reported Oct 10 2:25 AM — Oct 25 2:55 AM, Lahore, Weather by CustomWeather, © 2016

Note: Actual official high and low records may vary slightly from our data, if they occured in-between our weather recording intervals... More about our weather records


Lahore Weather History for the Previous 24 Hours

Scroll right to see more
Time TempWeatherWind HumidityBarometerVisibility
2:55 AM
Tue, Oct 25
70 °FClear.3 mph64%29.80 "Hg2 mi
2:25 AM72 °FClear.No wind61%29.80 "Hg2 mi
1:55 AM72 °FClear.No wind61%29.80 "Hg2 mi
1:25 AM73 °FClear.No wind57%29.80 "Hg2 mi
12:55 AM73 °FClear.No wind57%29.80 "Hg2 mi
12:25 AM73 °FClear.No wind61%29.80 "Hg2 mi
11:55 PM
Mon, Oct 24
73 °FClear.5 mph61%29.80 "Hg2 mi
11:25 PM75 °FClear.5 mph57%29.80 "Hg2 mi
10:55 PM75 °FClear.3 mph57%29.80 "Hg2 mi
10:24 PM75 °FClear.3 mph57%29.80 "Hg2 mi
9:55 PM75 °FClear.3 mph57%29.77 "Hg2 mi
9:25 PM77 °FClear.7 mph51%29.77 "Hg2 mi
8:55 PM77 °FClear.5 mph51%29.77 "Hg2 mi
8:25 PM79 °FHaze.3 mph45%29.77 "Hg2 mi
7:55 PM79 °FHaze.3 mph45%29.77 "Hg2 mi
7:30 PM81 °FHaze.No wind42%29.77 "Hg2 mi
7:00 PM81 °FHaze.No wind42%29.77 "Hg2 mi
6:30 PM82 °FHaze.5 mph37%29.74 "Hg2 mi
6:00 PM84 °FHaze.No wind35%29.74 "Hg2 mi
5:30 PM86 °FHaze.5 mph33%29.74 "Hg3 mi
5:00 PM86 °FHaze.5 mph33%29.74 "Hg3 mi
4:25 PM88 °FClear.7 mph33%29.74 "Hg4 mi
4:00 PM90 °FClear.5 mph31%29.74 "Hg4 mi
3:30 PM91 °FClear.No wind32%29.74 "Hg4 mi
3:00 PM91 °FClear.No wind32%29.74 "Hg4 mi
2:30 PM90 °FClear.No wind31%29.77 "Hg4 mi
1:55 PM90 °FHaze.6 mph31%29.77 "Hg3 mi
1:25 PM90 °FHaze.No wind29%29.77 "Hg3 mi
12:55 PM88 °FHaze.6 mph33%29.80 "Hg3 mi
12:25 PM88 °FHaze.No wind33%29.80 "Hg3 mi
11:55 AM88 °FHaze.5 mph33%29.80 "Hg3 mi
10:55 AM84 °FHaze.5 mph40%29.83 "Hg2 mi
10:25 AM82 °FHaze.3 mph45%29.86 "Hg2 mi
9:55 AM79 °FClear.3 mph51%29.86 "Hg2 mi
9:25 AM77 °FClear.5 mph57%29.86 "Hg2 mi
8:55 AM75 °FClear.5 mph61%29.83 "Hg1 mi
8:25 AM72 °FClear.No wind65%29.83 "Hg1 mi
7:55 AM68 °FClear.No wind69%29.83 "Hg1 mi
7:25 AM66 °FFog.No wind78%29.80 "Hg1 mi
6:55 AM64 °FFog.No wind83%29.80 "Hg1 mi
6:25 AM64 °FFog.No wind83%29.80 "Hg1 mi
5:55 AM64 °FFog.3 mph83%29.77 "Hg2 mi
4:55 AM64 °FClear.No wind83%29.77 "Hg2 mi
4:25 AM66 °FClear.No wind78%29.77 "Hg2 mi
Weather by CustomWeather, © 2016

See weather overviewHow to use our weather pages